[[{"header":{"parameterUnit":"m.s-1","parameterCategory":1,"la1":30.2991,"la2":30.254,"lo1":-89.0895,"lo2":-89.0444,"dy":0.0017,"dx":0.0017,"nx":28,"ny":28,"refTime":"2025-09-02T03:00:00:Z","depth":0,"parameterNumber":2,"parameterNumberName":"U-component_of_WINDS"},"data":[0,0,0,0,0,0,0,0,0,0,0,0,0,0,0,0,0,0,0,0,0,0,0,0,0,0,0,0,0,0,0,0,0,0,0,0,0,0,0,0,0,0,0,0,0,0,0,0,0,0,0,0,0,0,0,0,0,0,-0.475,-0.475,0,-0.4765,-0.4765,-0.4766,-0.4725,-0.4724,-0.4723,-0.4722,-0.474,-0.4742,-0.4743,0,0,0,0,0,0,0,0,0,0,0,0,0,-0.4688,-0.469,-0.475,-0.475,-0.475,-0.4765,-0.4765,-0.4766,-0.4726,-0.4724,-0.4722,-0.4721,-0.4739,-0.4741,-0.4743,0,0,0,0,0,0,0,0,0,0,0,0,0,-0.4711,-0.469,-0.475,-0.4732,-0.4731,-0.4765,-0.4765,-0.4766,-0.4726,-0.4724,-0.4722,-0.472,-0.4739,-0.4741,-0.4744,-0.4797,0,0,-0.4751,-0.4752,0,0,0,0,0,0,0,0,-0.4709,-0.4713,-0.4734,-0.4733,-0.4732,-0.4741,-0.475,-0.4776,-0.4726,-0.4728,-0.4722,-0.4719,-0.4742,-0.4744,-0.4751,-0.4798,-0.4799,-0.4751,-0.4753,-0.4754,-0.4755,0,0,0,0,0,0,0,-0.4708,-0.4712,-0.4756,-0.4735,-0.4733,-0.4724,-0.4725,-0.4755,-0.4746,-0.4727,-0.4725,-0.4727,-0.4741,-0.4749,-0.4751,-0.4799,-0.4751,-0.4754,-0.4755,-0.4756,-0.489,-0.4892,0,0,0,0,0,0,-0.4708,-0.4711,-0.4756,-0.4756,-0.4716,-0.4727,-0.4728,-0.474,-0.4745,-0.4744,-0.4728,-0.4725,-0.4746,-0.4749,-0.4752,-0.4815,-0.4754,-0.4756,-0.4758,-0.4888,-0.4891,-0.4893,0,0,0,0,0,0,-0.4707,-0.4713,-0.4755,-0.4733,-0.4738,-0.473,-0.4744,-0.4742,-0.4749,-0.4746,-0.4744,-0.4738,-0.4744,-0.4748,-0.4786,-0.4815,-0.4757,-0.476,-0.4886,-0.4889,-0.4892,-0.4942,0,0,0,0,0,0,-0.4706,-0.4712,-0.4732,-0.4734,-0.4739,-0.4788,-0.4746,-0.4743,-0.4754,-0.4749,-0.4754,-0.4754,-0.4743,-0.4782,-0.4788,-0.4818,-0.4762,-0.4883,-0.4887,-0.4891,-0.4938,-0.4946,-0.4954,0,0,0,0,0,-0.4703,-0.4746,-0.4733,-0.4739,-0.4763,-0.479,-0.4793,-0.478,-0.4756,-0.4776,-0.4774,-0.4753,-0.4811,-0.4787,-0.4793,-0.4824,-0.4881,-0.4886,-0.4891,-0.4934,-0.4945,-0.4954,0,0,0,0,0,0,-0.475,-0.4746,-0.4732,-0.4776,-0.4784,-0.4783,-0.4808,-0.4791,-0.4806,-0.4801,-0.4785,-0.4786,-0.4827,-0.4829,-0.4802,-0.4876,-0.4842,-0.4848,-0.4873,-0.4883,-0.4891,-0.489,-0.4764,0,0,0,0,0,-0.4765,-0.4786,-0.4782,-0.4821,-0.4826,-0.4816,-0.4828,-0.4816,-0.4824,-0.4827,-0.4827,-0.4836,-0.4856,-0.4869,-0.4887,-0.4937,-0.4938,-0.4961,-0.4969,-0.4976,-0.4982,-0.5009,-0.502,-0.4908,-0.4908,-0.4908,0,0,-0.4797,-0.4797,-0.4812,-0.4831,-0.4835,-0.4858,-0.4819,-0.4845,-0.4863,-0.4831,-0.4867,-0.4867,-0.4875,-0.492,-0.4939,-0.4922,-0.5013,-0.4982,-0.4987,-0.499,-0.5015,-0.5026,-0.5035,-0.4911,-0.4911,-0.491,0,0,-0.4867,-0.4869,-0.4902,-0.4907,-0.4914,-0.4907,-0.4915,-0.4917,-0.4916,-0.4951,-0.4928,-0.4948,-0.4983,-0.499,-0.4998,-0.507,-0.5053,-0.5077,-0.512,-0.5146,-0.5155,-0.5163,-0.5189,-0.5199,-0.5082,-0.5083,-0.5083,0,-0.4906,-0.4939,-0.4922,-0.4949,-0.4959,-0.493,-0.4964,-0.497,-0.4983,-0.499,-0.4971,-0.5014,-0.5017,-0.5063,-0.508,-0.5088,-0.5097,-0.5077,-0.5155,-0.5163,-0.517,-0.5195,-0.5205,-0.5086,-0.5085,-0.5085,-0.5085,0,-0.4987,-0.501,-0.5037,-0.5049,-0.5061,-0.5092,-0.508,-0.5094,-0.5082,-0.5078,-0.5114,-0.5117,-0.5135,-0.5145,-0.5134,-0.5189,-0.5179,-0.5158,-0.5124,-0.5183,-0.5207,-0.5216,-0.509,-0.5089,-0.5088,-0.5087,0,0,-0.5088,-0.5089,-0.5099,-0.5105,-0.511,-0.5128,-0.5157,-0.5174,-0.5188,-0.5197,-0.5222,-0.5252,-0.5232,-0.5241,-0.523,-0.5253,-0.5311,-0.5229,-0.5229,-0.5245,-0.5374,-0.5391,-0.5402,-0.5299,-0.53,-0.5302,-0.5373,0,-0.5158,-0.5208,-0.5193,-0.5244,-0.5265,-0.5238,-0.5264,-0.527,-0.5267,-0.5285,-0.5281,-0.5303,-0.5275,-0.528,-0.5302,-0.53,-0.5337,-0.5294,-0.5323,-0.5324,-0.5323,-0.5414,-0.5432,-0.55,-0.5382,-0.5384,-0.5385,0,-0.5246,-0.5258,-0.5311,-0.5312,-0.5321,-0.5344,-0.5359,-0.5376,-0.5383,-0.5379,-0.5389,-0.5373,-0.5403,-0.5368,-0.541,-0.5381,-0.5391,-0.5392,-0.5394,-0.5398,-0.5359,-0.5421,-0.5521,-0.5532,-0.5399,-0.5398,-0.5397,0,-0.5316,-0.5345,-0.538,-0.5386,-0.5388,-0.5405,-0.5407,-0.5411,-0.5423,-0.5436,-0.5443,-0.5459,-0.5469,-0.5482,-0.5471,-0.5447,-0.5515,-0.5479,-0.5513,-0.5514,-0.553,-0.5529,-0.5634,-0.5535,-0.5535,-0.5535,-0.5534,0,-0.5396,-0.543,-0.5412,-0.5434,-0.5471,-0.5453,-0.5491,-0.5489,-0.5494,-0.5516,-0.5493,-0.5514,-0.5497,-0.5517,-0.5509,-0.5545,-0.5549,-0.5547,-0.5545,-0.555,-0.5551,-0.5558,-0.5554,-0.5537,-0.5537,-0.5536,-0.5536,0,-0.5481,-0.547,-0.5507,-0.5505,-0.5506,-0.5533,-0.5532,-0.5553,-0.5547,-0.5575,-0.5581,-0.5572,-0.5595,-0.5584,-0.5608,-0.5602,-0.5649,-0.564,-0.5647,-0.5645,-0.568,-0.5678,-0.5795,-0.5809,-0.57,-0.5701,-0.5702,0,-0.5533,-0.5558,-0.5559,-0.5572,-0.5575,-0.5595,-0.5606,-0.559,-0.5603,-0.5612,-0.5632,-0.5652,-0.5667,-0.5704,-0.5701,-0.5718,-0.571,-0.575,-0.5713,-0.5718,-0.5712,-0.5712,-0.5714,-0.5758,-0.5759,-0.576,-0.5761,0,-0.5628,-0.5621,-0.5638,-0.5652,-0.5666,-0.5677,-0.5686,-0.5698,-0.5682,-0.5697,-0.5719,-0.5731,-0.5754,-0.5775,-0.579,-0.5793,-0.5775,-0.5772,-0.5782,-0.5788,-0.5791,-0.5791,-0.5668,-0.577,-0.5769,-0.5769,-0.5768,-0.5768,-0.5699,-0.572,-0.5724,-0.5743,-0.5748,-0.5757,-0.5776,-0.5773,-0.579,-0.5808,-0.5797,-0.5823,-0.5829,-0.5848,-0.5853,-0.5874,-0.5858,-0.5871,-0.5875,-0.5879,-0.5884,-0.5787,-0.5876,-0.5876,-0.5876,-0.5876,-0.5875,0,-0.5794,-0.5795,-0.5812,-0.5825,-0.5841,-0.582,-0.5829,-0.5844,-0.5867,-0.5873,-0.5888,-0.5914,-0.5933,-0.5931,-0.5949,-0.5966,-0.5958,-0.5972,-0.5971,-0.5972,-0.5896,-0.5887,-0.5978,-0.5978,-0.5978,-0.5978,-0.5978,-0.5977,-0.5845,-0.588,-0.5874,-0.5911,-0.5912,-0.5936,-0.5943,-0.5952,-0.5957,-0.5986,-0.6002,-0.5999,-0.6003,-0.6021,-0.6038,-0.6037,-0.6045,-0.6062,-0.6058,-0.5987,-0.5977,-0.5968,-0.5959,-0.6064,-0.6064,-0.6132,-0.6133,-0.6134]},{"header":{"parameterUnit":"m.s-1","parameterCategory":1,"la1":30.2991,"la2":30.254,"lo1":-89.0895,"lo2":-89.0444,"dy":0.0017,"dx":0.0017,"nx":28,"ny":28,"refTime":"2025-09-02T03:00:00:Z","depth":0,"parameterNumber":3,"parameterNumberName":"V-component_of_WINDS"},"data":[0,0,0,0,0,0,0,0,0,0,0,0,0,0,0,0,0,0,0,0,0,0,0,0,0,0,0,0,0,0,0,0,0,0,0,0,0,0,0,0,0,0,0,0,0,0,0,0,0,0,0,0,0,0,0,0,0,0,-0.9409,-0.941,0,-0.9451,-0.9452,-0.9452,-0.9498,-0.9498,-0.9499,-0.95,-0.9543,-0.9544,-0.9544,0,0,0,0,0,0,0,0,0,0,0,0,0,-0.9369,-0.937,-0.9409,-0.941,-0.941,-0.9451,-0.9452,-0.9452,-0.9498,-0.9498,-0.9499,-0.95,-0.9543,-0.9544,-0.9544,0,0,0,0,0,0,0,0,0,0,0,0,0,-0.9397,-0.937,-0.9409,-0.9438,-0.9441,-0.9451,-0.9452,-0.9453,-0.9497,-0.9498,-0.9499,-0.95,-0.9543,-0.9544,-0.9545,-0.953,0,0,-0.9547,-0.9547,0,0,0,0,0,0,0,0,-0.9395,-0.9398,-0.9433,-0.9436,-0.9439,-0.947,-0.9454,-0.9479,-0.9497,-0.9476,-0.95,-0.9501,-0.9518,-0.9521,-0.9527,-0.9532,-0.9534,-0.9547,-0.9548,-0.9548,-0.9548,0,0,0,0,0,0,0,-0.9393,-0.9396,-0.9426,-0.9434,-0.9437,-0.9449,-0.9454,-0.9459,-0.9491,-0.9478,-0.9481,-0.9486,-0.952,-0.9526,-0.9528,-0.9535,-0.9547,-0.9548,-0.9548,-0.9549,-0.9531,-0.953,0,0,0,0,0,0,-0.9387,-0.9395,-0.9425,-0.9427,-0.9419,-0.9449,-0.9454,-0.9459,-0.9491,-0.9497,-0.9485,-0.9488,-0.9524,-0.9527,-0.953,-0.9515,-0.9548,-0.9549,-0.9549,-0.9532,-0.9531,-0.953,0,0,0,0,0,0,-0.9386,-0.9389,-0.9423,-0.9412,-0.9417,-0.9449,-0.9454,-0.946,-0.9466,-0.9496,-0.9502,-0.9485,-0.9525,-0.9529,-0.953,-0.9517,-0.9549,-0.955,-0.9533,-0.9531,-0.953,-0.9485,0,0,0,0,0,0,-0.9384,-0.9388,-0.9383,-0.9411,-0.9417,-0.9421,-0.9453,-0.946,-0.9467,-0.9471,-0.9498,-0.9503,-0.9526,-0.9528,-0.9531,-0.9519,-0.9551,-0.9534,-0.9532,-0.9531,-0.9488,-0.9483,-0.9478,0,0,0,0,0,-0.9383,-0.9369,-0.9382,-0.9386,-0.9411,-0.9421,-0.9424,-0.945,-0.9466,-0.9461,-0.948,-0.9503,-0.9519,-0.9528,-0.9531,-0.952,-0.9535,-0.9533,-0.9531,-0.949,-0.9484,-0.9478,0,0,0,0,0,0,-0.9338,-0.9373,-0.9388,-0.9383,-0.9399,-0.9428,-0.9423,-0.9442,-0.9454,-0.9457,-0.949,-0.9495,-0.9493,-0.9507,-0.9516,-0.9508,-0.953,-0.9528,-0.9498,-0.9492,-0.9487,-0.9484,-0.9551,0,0,0,0,0,-0.9327,-0.9332,-0.9362,-0.9355,-0.9362,-0.9391,-0.9396,-0.9415,-0.9432,-0.9439,-0.9459,-0.9475,-0.9484,-0.9489,-0.9499,-0.9491,-0.9497,-0.9484,-0.9479,-0.9475,-0.9473,-0.947,-0.9464,-0.9522,-0.9522,-0.9522,0,0,-0.9306,-0.9325,-0.9326,-0.9346,-0.936,-0.9365,-0.9396,-0.9399,-0.9402,-0.944,-0.9441,-0.9457,-0.9477,-0.9473,-0.9473,-0.9485,-0.9459,-0.9472,-0.9468,-0.9469,-0.9467,-0.9461,-0.9456,-0.9521,-0.9521,-0.9521,0,0,-0.9268,-0.9283,-0.9279,-0.9292,-0.9313,-0.9333,-0.9332,-0.9359,-0.937,-0.9373,-0.9401,-0.9406,-0.942,-0.9434,-0.9442,-0.9411,-0.9431,-0.9413,-0.9386,-0.9382,-0.9378,-0.9374,-0.9362,-0.9358,-0.9411,-0.9411,-0.9411,0,-0.9238,-0.9245,-0.9274,-0.9275,-0.9283,-0.9317,-0.9313,-0.9325,-0.9348,-0.9353,-0.9366,-0.9385,-0.9401,-0.9401,-0.9394,-0.94,-0.94,-0.941,-0.9376,-0.9373,-0.9369,-0.9359,-0.9354,-0.9409,-0.9409,-0.9409,-0.9409,0,-0.9207,-0.9212,-0.9206,-0.9227,-0.9235,-0.9233,-0.9262,-0.9266,-0.9285,-0.9303,-0.9305,-0.9326,-0.9341,-0.9342,-0.9361,-0.9345,-0.9352,-0.937,-0.9393,-0.9361,-0.9351,-0.9348,-0.9405,-0.9406,-0.9407,-0.9407,0,0,-0.9142,-0.9179,-0.9176,-0.9187,-0.9213,-0.9217,-0.9218,-0.9232,-0.9235,-0.925,-0.9251,-0.9263,-0.928,-0.929,-0.931,-0.9307,-0.9281,-0.9326,-0.9327,-0.9317,-0.9265,-0.925,-0.9245,-0.9295,-0.9294,-0.9294,-0.9263,0,-0.9108,-0.911,-0.9136,-0.9131,-0.9136,-0.9169,-0.9169,-0.9185,-0.9202,-0.9209,-0.9229,-0.9236,-0.9259,-0.9265,-0.9264,-0.9284,-0.927,-0.9287,-0.9296,-0.9296,-0.9289,-0.924,-0.9224,-0.9194,-0.9259,-0.9259,-0.9258,0,-0.9069,-0.9082,-0.9077,-0.9103,-0.9106,-0.9106,-0.9121,-0.9127,-0.9147,-0.916,-0.9171,-0.9194,-0.9197,-0.9219,-0.9223,-0.9233,-0.9239,-0.925,-0.9249,-0.9251,-0.9274,-0.9239,-0.9185,-0.918,-0.9253,-0.9253,-0.9254,0,-0.9021,-0.9037,-0.9036,-0.9044,-0.9075,-0.9074,-0.9087,-0.9108,-0.9115,-0.9128,-0.9133,-0.9147,-0.9154,-0.9165,-0.9191,-0.9205,-0.9192,-0.9217,-0.9203,-0.9202,-0.9198,-0.9198,-0.9143,-0.9203,-0.9203,-0.9203,-0.9203,0,-0.898,-0.8976,-0.9015,-0.9014,-0.901,-0.9041,-0.9037,-0.9053,-0.9071,-0.9074,-0.9104,-0.9107,-0.9141,-0.9148,-0.9169,-0.9169,-0.9173,-0.9183,-0.9189,-0.918,-0.9179,-0.9184,-0.9186,-0.9202,-0.9202,-0.9202,-0.9202,0,-0.8925,-0.8951,-0.8953,-0.8982,-0.899,-0.8985,-0.9011,-0.9012,-0.9031,-0.9035,-0.9038,-0.9069,-0.9078,-0.9106,-0.9122,-0.9136,-0.9131,-0.9141,-0.9124,-0.9127,-0.9111,-0.9112,-0.9058,-0.9052,-0.9115,-0.9115,-0.9114,0,-0.8897,-0.8895,-0.8924,-0.8928,-0.894,-0.8947,-0.8954,-0.8984,-0.8991,-0.9013,-0.9011,-0.9023,-0.9034,-0.9048,-0.9072,-0.9085,-0.9096,-0.9076,-0.9098,-0.909,-0.9095,-0.9094,-0.9094,-0.9071,-0.907,-0.9069,-0.9069,0,-0.8845,-0.8858,-0.8867,-0.8881,-0.8888,-0.8901,-0.8915,-0.8917,-0.8951,-0.8957,-0.8967,-0.8975,-0.8993,-0.9004,-0.9021,-0.9035,-0.9057,-0.9062,-0.9059,-0.905,-0.904,-0.9045,-0.911,-0.9063,-0.9063,-0.9064,-0.9064,-0.9064,-0.8802,-0.8801,-0.8822,-0.8831,-0.8845,-0.8858,-0.886,-0.888,-0.8889,-0.8904,-0.8922,-0.893,-0.8951,-0.8976,-0.8988,-0.8995,-0.9007,-0.9003,-0.9002,-0.9001,-0.8997,-0.9039,-0.8998,-0.8999,-0.8999,-0.8999,-0.8999,0,-0.8751,-0.8765,-0.8774,-0.8793,-0.88,-0.8821,-0.8838,-0.8842,-0.8849,-0.8866,-0.8876,-0.8888,-0.8899,-0.8925,-0.8938,-0.8939,-0.895,-0.8942,-0.8942,-0.8945,-0.8985,-0.8986,-0.8933,-0.8933,-0.8933,-0.8933,-0.8933,-0.8933,-0.8724,-0.8724,-0.874,-0.8747,-0.8762,-0.877,-0.8778,-0.879,-0.8803,-0.8815,-0.8825,-0.8841,-0.8861,-0.8877,-0.8889,-0.8896,-0.8899,-0.8888,-0.8898,-0.8935,-0.8942,-0.8948,-0.8948,-0.8888,-0.8888,-0.8857,-0.8856,-0.8856]}]]